Location: Krakow
(50.0830°N, 19.9170°E)
Time: 10:52:30
(UTC+01:00)

Transit 2A - Pass Details

Date: 13 February 2023
Orbit: 591 x 964 km, 66.7° (Epoch: 21 March)

Event Time Altitude Azimuth Distance (km) Brightness Sun altitude
Rises 20:18:53 0° 319° (NW) 3,413 10.2 -32.9°
Reaches altitude 10° 20:21:51 10° 334° (NNW) 2,538 9.2 -33.4°
Enters shadow 20:24:59 21° 5° (N) 1,932 8.1 -33.8°
Maximum altitude 20:26:28 23° 25° (NNE) 1,863 - -34.1°
Drops below altitude 10° 20:31:18 10° 76° (ENE) 2,672 - -34.8°
Sets 20:34:31 0° 91° (E) 3,640 - -35.2°
